User: anonymous   Login
Location: Castelbiague
(43.0361°N, 0.9246°E)
Time: 22:27:00
(UTC+00:00)
Language:

Meteor 1-4 Rocket - Orbit

View from above orbital plane
View from above orbital plane
View from above satellite
View from above satellite

Ground track
Ground track

The orbit data is extracted from the following two-line orbital elements,

1 04394U 70037B   21263.52182041  .00001645  00000-0  52661-4 0  9994
2 04394  81.2439 343.4873 0037295 196.7098 163.2914 15.31081401803132
Epoch (UTC): 20 September 2021 12:31:25
Eccentricity: 0.0037295
inclination: 81.2439°
perigee height: 447 km
apogee height: 498 km
right ascension of ascending node: 343.4873°
argument of perigee: 196.7098°
revolutions per day: 15.31081401
mean anomaly at epoch: 163.2914°
orbit number at epoch: 80313

The dashed part of the orbit path shows where the satellite is in the earth's shadow,  

DLR